Burnet, TX

9:41 AM CDT on August 27, 2016 (GMT -0500)
Burnet Municipal-Craddock

Weather History for KBMQ - February, 2012

Change the Weather History Date:

Saturday, February 18, 2012

  Actual Average Record
Temperature  
Mean Temperature 50 °F -  
Max Temperature 54 °F 61 °F 79 °F (2013)
Min Temperature 46 °F 41 °F 24 °F (2006)
Degree Days  
Heating Degree Days 15    
Moisture  
Dew Point 48 °F    
Average Humidity 90    
Maximum Humidity 100    
Minimum Humidity 82    
Precipitation  
Precipitation 1.44 in - - ()
Sea Level Pressure  
Sea Level Pressure 29.93 in    
Wind  
Wind Speed 11 mph (NNW)    
Max Wind Speed 16 mph    
Max Gust Speed 24 mph    
Visibility 7 miles    
Events Rain , Thunderstorm    
Averages and records for this station are not official NWS values.
T = Trace of Precipitation, MM = Missing Value Source: NWS Daily Summary

Daily Weather History Graph

Daily Weather History Graph

Search for Another Location

Airport or City:

Trip Planner

Search our weather history database for the weather conditions in past years. The results will help you decide how hot, cold, wet, or windy it might be!

Date:

Astronomy

Feb. 18, 2012 Rise Set
Actual Time 7:11 AM CST 6:22 PM CST
Civil Twilight 6:46 AM CST 6:47 PM CST
Nautical Twilight 6:18 AM CST 7:15 PM CST
Astronomical Twilight 5:50 AM CST 7:43 PM CST
Moon 4:41 AM CST (2/18) 3:30 PM CST (2/18)
Length of Visible Light 12h 00m
Length of Day
11h 11m
Waning Crescent, 11% of the Moon is Illuminated
Feb 18
Waning Crescent
Feb 21
New
Feb 29
First Quarter
Mar 8
Full
Mar 14
Last Quarter

Hourly Weather History & Observations

Time (CST) Temp. Windchill Dew Point Humidity Pressure Visibility Wind Dir Wind Speed Gust Speed Precip Events Conditions
12:04 AM 53.6 °F - 51.8 °F 94% 29.93 in 0.8 mi WNW 16.1 mph 21.9 mph 0.26 in Rain , Thunderstorm Heavy Thunderstorms and Rain
12:14 AM 53.6 °F - 51.8 °F 94% 29.95 in 0.8 mi NW 12.7 mph 20.7 mph 0.47 in Rain , Thunderstorm Heavy Thunderstorms and Rain
12:23 AM 51.8 °F - 51.8 °F 100% 29.92 in 1.0 mi NW 15.0 mph 24.2 mph 0.69 in Rain , Thunderstorm Heavy Thunderstorms and Rain
12:29 AM 51.8 °F - 50.0 °F 94% 29.94 in 2.5 mi NW 9.2 mph 21.9 mph 0.69 in Rain , Thunderstorm Light Thunderstorms and Rain
12:36 AM 51.8 °F - 50.0 °F 94% 29.92 in 5.0 mi NNE 10.4 mph 16.1 mph 0.71 in Rain , Thunderstorm Heavy Thunderstorms and Rain
12:49 AM 51.8 °F - 50.0 °F 94% 29.91 in 10.0 mi NNE 9.2 mph 18.4 mph 0.71 in Rain , Thunderstorm Light Rain
12:53 AM 52.0 °F - 50.0 °F 93% 29.94 in 10.0 mi NW 8.1 mph - 0.71 in Rain Light Rain
1:49 AM 53.6 °F - 51.8 °F 94% 29.93 in 8.0 mi NE 8.1 mph - 0.01 in Rain , Thunderstorm Light Thunderstorms and Rain
1:53 AM 54.0 °F - 51.1 °F 90% 29.91 in 5.0 mi NE 8.1 mph - 0.03 in Rain , Thunderstorm Thunderstorms and Rain
2:08 AM 53.6 °F - 51.8 °F 94% 29.93 in 3.0 mi NE 5.8 mph - 0.06 in Rain Rain
2:15 AM 53.6 °F - 51.8 °F 94% 29.92 in 4.0 mi NNE 10.4 mph - 0.09 in Rain , Thunderstorm Thunderstorms and Rain
2:35 AM 53.6 °F - 51.8 °F 94% 29.89 in 5.0 mi NNE 12.7 mph 21.9 mph 0.15 in Rain Light Rain
2:53 AM 53.1 °F - 51.1 °F 93% 29.86 in 8.0 mi NNE 10.4 mph 19.6 mph 0.16 in Rain Light Rain
3:10 AM 53.6 °F - 51.8 °F 94% 29.88 in 8.0 mi NNE 6.9 mph - 0.01 in Rain Light Rain
3:53 AM 52.0 °F - 50.0 °F 93% 29.81 in 10.0 mi North 11.5 mph - 0.06 in Rain Light Rain
4:31 AM 51.8 °F - 50.0 °F 94% 29.84 in 10.0 mi North 9.2 mph - 0.00 in Rain Light Rain
4:53 AM 51.1 °F - 50.0 °F 96% 29.86 in 10.0 mi North 6.9 mph - 0.00 in Rain Light Rain
5:02 AM 51.8 °F - 48.2 °F 88% 29.87 in 6.0 mi North 6.9 mph - 0.02 in Rain , Thunderstorm Rain
5:10 AM - - - N/A% - - North - - 0.02 in Thunderstorm Unknown
5:18 AM 51.8 °F - 48.2 °F 88% 29.86 in - NNE 6.9 mph - 0.02 in Rain Light Rain
5:46 AM 51.8 °F - 48.2 °F 88% 29.86 in 10.0 mi NNE 6.9 mph - 0.02 in   Overcast
6:53 AM 51.1 °F - 48.9 °F 92% 29.84 in 10.0 mi NNE 12.7 mph 17.3 mph 0.02 in   Overcast
7:27 AM 51.8 °F - 48.2 °F 88% 29.85 in 8.0 mi NE 11.5 mph - N/A   Overcast
7:53 AM 51.1 °F - 48.9 °F 92% 29.84 in 6.0 mi NE 10.4 mph 18.4 mph 0.00 in Rain Light Rain
9:45 AM 51.8 °F - 48.2 °F 88% 29.87 in 10.0 mi ENE 15.0 mph 21.9 mph 0.00 in Rain Light Rain
9:53 AM 53.1 °F - 50.0 °F 89% 29.86 in 10.0 mi ENE 12.7 mph 23.0 mph 0.00 in   Overcast
11:26 AM 53.6 °F - 48.2 °F 82% 29.92 in 0.8 mi West 12.7 mph 20.7 mph 0.23 in Rain Light Rain
11:40 AM 51.8 °F - 48.2 °F 88% 29.91 in 1.5 mi WNW 6.9 mph - 0.42 in Rain , Thunderstorm Rain
11:44 AM 51.8 °F - 50.0 °F 94% 29.91 in 3.0 mi WNW 8.1 mph - 0.42 in Rain , Thunderstorm Rain
11:53 AM 52.0 °F - 48.9 °F 89% 29.91 in 6.0 mi WNW 10.4 mph - 0.42 in Rain Light Rain
12:17 PM 51.8 °F - 48.2 °F 88% 29.91 in 8.0 mi West 6.9 mph - 0.01 in Rain Light Rain
12:48 PM 53.6 °F - 48.2 °F 82% 29.89 in 7.0 mi NNW 10.4 mph - 0.01 in Rain Light Rain
12:53 PM 53.1 °F - 50.0 °F 89% 29.87 in 10.0 mi NNW 8.1 mph - 0.01 in Rain Light Rain
1:33 PM 53.6 °F - 48.2 °F 82% 29.87 in 10.0 mi NNW 13.8 mph 19.6 mph 0.00 in   Overcast
1:53 PM 53.1 °F - 48.9 °F 86% 29.85 in 5.0 mi NNW 9.2 mph - 0.00 in Rain Light Rain
2:17 PM 51.8 °F - 48.2 °F 88% 29.87 in 6.0 mi NNW 13.8 mph 20.7 mph 0.00 in Rain Light Rain
2:53 PM 52.0 °F - 48.0 °F 86% 29.86 in 5.0 mi NNW 12.7 mph 18.4 mph 0.03 in Rain Light Rain
3:33 PM 51.8 °F - 48.2 °F 88% 29.89 in 10.0 mi NNW 16.1 mph 21.9 mph 0.00 in   Overcast
3:53 PM 51.1 °F - 46.9 °F 86% 29.88 in 10.0 mi NNW 13.8 mph 23.0 mph 0.00 in Rain Light Rain
4:23 PM 50.0 °F - 46.4 °F 87% 29.91 in 6.0 mi NNW 13.8 mph 24.2 mph 0.00 in Rain Light Rain
4:53 PM 50.0 °F - 46.9 °F 89% 29.92 in 10.0 mi NNW 15.0 mph 21.9 mph 0.00 in Rain Light Rain
5:18 PM 50.0 °F - 46.4 °F 87% 29.94 in 7.0 mi NNW 10.4 mph 20.7 mph 0.00 in   Overcast
5:41 PM 50.0 °F - 46.4 °F 87% 29.95 in 10.0 mi NNW 15.0 mph 20.7 mph 0.00 in   Overcast
5:53 PM 50.0 °F - 46.0 °F 86% 29.94 in 10.0 mi NW 9.2 mph - 0.00 in   Overcast
6:30 PM 50.0 °F - 44.6 °F 82% 29.98 in 10.0 mi NNW 13.8 mph 20.7 mph N/A   Overcast
6:45 PM 50.0 °F - 44.6 °F 82% 29.99 in 10.0 mi NNW 11.5 mph - N/A   Overcast
6:53 PM 48.9 °F - 45.0 °F 86% 29.99 in 10.0 mi NW 8.1 mph - N/A   Overcast
7:53 PM 48.0 °F - 44.1 °F 86% 30.00 in 10.0 mi North 8.1 mph - 0.00 in   Mostly Cloudy
8:38 PM 46.4 °F 41.9 °F 42.8 °F 87% 30.04 in 10.0 mi NNW 9.2 mph - N/A   Mostly Cloudy
8:53 PM 48.0 °F - 44.1 °F 86% 30.05 in 10.0 mi NNW 6.9 mph - N/A   Overcast
9:13 PM 46.4 °F 42.9 °F 44.6 °F 93% 30.08 in 4.0 mi NW 6.9 mph - N/A   Overcast
9:48 PM 46.4 °F 41.9 °F 44.6 °F 93% 30.08 in 4.0 mi North 9.2 mph 18.4 mph 0.00 in Rain Light Rain
9:53 PM 46.9 °F - 43.0 °F 86% 30.07 in 5.0 mi North 8.1 mph - 0.00 in Rain Light Rain
10:53 PM 46.9 °F - 44.1 °F 90% 30.08 in 4.0 mi North 5.8 mph - 0.00 in   Overcast
11:12 PM 46.4 °F 42.9 °F 44.6 °F 93% 30.09 in 10.0 mi NNW 6.9 mph - 0.00 in   Overcast
11:53 PM 46.9 °F - 44.1 °F 90% 30.10 in 10.0 mi NW 5.8 mph - 0.00 in   Overcast